Bangor, ME

7:57 PM EST on December 10, 2019 (GMT -0500)
Bangor International

Weather History for KBGR - August, 2019

Change the Weather History Date:

Tuesday, August 13, 2019

  Actual Average Record
Temperature  
Mean Temperature 72 °F 68 °F  
Max Temperature 82 °F 79 °F 95 °F (2002)
Min Temperature 61 °F 57 °F 40 °F (1946)
Degree Days  
Heating Degree Days 0 1  
Month to date heating degree days 1 13  
Since 1 June heating degree days 91 143  
Since 1 July heating degree days 1 36  
Cooling Degree Days 7 4  
Month to date cooling degree days 50 52  
Year to date cooling degree days 276 242  
Since 1 June cooling degree days 276 236  
Growing Degree Days 23 (Base 50)    
Moisture  
Dew Point 61 °F    
Average Humidity 68    
Maximum Humidity 93    
Minimum Humidity 43    
Precipitation  
Precipitation 0.07 in 0.09 in 1.32 in (1931)
Month to date precipitation 3.85 1.36  
Year to date precipitation 32.52 24.63  
Snow  
Snow 0.00 in 0.00 in 0.00 in (2002)
Month to date snowfall 0.0 0.0  
Since 1 June snowfall 0.0 0.0  
Since 1 July snowfall 0.0 0.0  
Snow Depth 0.00 in    
Sea Level Pressure  
Sea Level Pressure 29.75 in    
Wind  
Wind Speed 5 mph (WSW)    
Max Wind Speed 13 mph    
Max Gust Speed 15 mph    
Visibility 10 miles    
Events Rain    
T = Trace of Precipitation, MM = Missing Value Source: NWS Daily Summary

Daily Weather History Graph

Daily Weather History Graph

Search for Another Location

Airport or City:

Astronomy

Aug. 13, 2019 Rise Set
Actual Time 5:34 AM EDT 7:44 PM EDT
Civil Twilight 5:02 AM EDT 8:16 PM EDT
Nautical Twilight 4:22 AM EDT 8:56 PM EDT
Astronomical Twilight 3:38 AM EDT 9:39 PM EDT
Moon 7:02 PM EDT (8/13) 3:27 AM EDT (8/13)
Length of Visible Light 15h 14m
Length of Day
14h 10m
Waxing Gibbous, 97% of the Moon is Illuminated
Aug 13
Waxing Gibbous
Aug 15
Full
Aug 23
Last Quarter
Aug 30
New
Sep 5
First Quarter

Hourly Weather History & Observations

Time (EDT) Temp. Heat Index Dew Point Humidity Pressure Visibility Wind Dir Wind Speed Gust Speed Precip Events Conditions
12:53 AM 64.9 °F - 62.1 °F 90% 29.73 in 10.0 mi South 3.5 mph - 0.00 in Rain Light Rain
1:53 AM 64.9 °F - 62.1 °F 90% 29.73 in 10.0 mi SW 4.6 mph - 0.00 in   Overcast
2:53 AM 64.9 °F - 63.0 °F 93% 29.73 in 10.0 mi Calm Calm - 0.00 in Rain Light Rain
3:53 AM 66.0 °F - 63.0 °F 90% 29.71 in 10.0 mi SSW 4.6 mph - 0.06 in Rain Light Rain
4:53 AM 64.9 °F - 64.0 °F 97% 29.71 in 10.0 mi South 3.5 mph - 0.00 in   Mostly Cloudy
5:53 AM 64.9 °F - 63.0 °F 93% 29.72 in 10.0 mi Calm Calm - 0.00 in   Mostly Cloudy
6:53 AM 66.0 °F - 64.0 °F 93% 29.75 in 10.0 mi West 4.6 mph - N/A   Mostly Cloudy
7:53 AM 69.1 °F - 64.0 °F 84% 29.75 in 10.0 mi Variable 4.6 mph - N/A   Mostly Cloudy
8:53 AM 73.0 °F - 63.0 °F 71% 29.74 in 10.0 mi Variable 6.9 mph - N/A   Scattered Clouds
9:53 AM 73.9 °F - 62.1 °F 66% 29.75 in 10.0 mi West 5.8 mph - N/A   Scattered Clouds
10:53 AM 75.9 °F - 62.1 °F 62% 29.74 in 10.0 mi Variable 3.5 mph - N/A   Mostly Cloudy
11:53 AM 77.0 °F - 60.1 °F 56% 29.74 in 10.0 mi West 5.8 mph - N/A   Mostly Cloudy
12:53 PM 79.0 °F - 61.0 °F 54% 29.74 in 10.0 mi Variable 6.9 mph - N/A   Mostly Cloudy
1:53 PM 78.1 °F - 57.9 °F 50% 29.73 in 10.0 mi WSW 8.1 mph - N/A   Mostly Cloudy
2:53 PM 81.0 °F 81.0 °F 57.0 °F 44% 29.72 in 10.0 mi WSW 8.1 mph - N/A   Scattered Clouds
3:53 PM 80.1 °F 80.4 °F 57.0 °F 45% 29.71 in 10.0 mi SW 6.9 mph - N/A   Mostly Cloudy
4:53 PM 82.0 °F 82.0 °F 57.9 °F 44% 29.71 in 10.0 mi West 4.6 mph - N/A   Scattered Clouds
5:53 PM 75.0 °F - 64.9 °F 71% 29.73 in 10.0 mi South 6.9 mph - 0.01 in Rain Light Rain
6:53 PM 71.1 °F - 66.0 °F 84% 29.75 in 10.0 mi South 8.1 mph - 0.00 in   Mostly Cloudy
7:53 PM 66.9 °F - 62.1 °F 84% 29.78 in 10.0 mi SW 4.6 mph - N/A   Mostly Cloudy
8:53 PM 66.9 °F - 62.1 °F 84% 29.80 in 10.0 mi NNW 4.6 mph - N/A   Mostly Cloudy
9:53 PM 68.0 °F - 60.1 °F 76% 29.81 in 10.0 mi North 8.1 mph - N/A   Scattered Clouds
10:53 PM 66.0 °F - 57.0 °F 73% 29.82 in 10.0 mi North 5.8 mph - N/A   Partly Cloudy
11:53 PM 63.0 °F - 55.0 °F 75% 29.83 in 10.0 mi NNE 4.6 mph - N/A   Partly Cloudy